User: anonymous   Login
Location: Unspecified
(0.0000°N, 0.0000°E)
Time: 12:41:12
(UTC+00:00)
Language:

AEHF 4 (USA 288) - Orbit

View from above orbital plane
View from above orbital plane
View from above satellite
View from above satellite

Ground track
Ground track

The orbit data is extracted from the following two-line orbital elements,

1 43651U 18079A   21020.80909396  .00000141  00000-0  00000-0 0  9999
2 43651   3.4374 311.7029 0002382 325.8082 344.1832  1.00266439  8507
Epoch (UTC): 20 January 2021 19:25:05
Eccentricity: 0.0002382
inclination: 3.4374°
perigee height: 35777 km
apogee height: 35798 km
right ascension of ascending node: 311.7029°
argument of perigee: 325.8082°
revolutions per day: 1.00266439
mean anomaly at epoch: 344.1832°
orbit number at epoch: 850

The dashed part of the orbit path shows where the satellite is in the earth's shadow,  

DLR